TimeEDT,TemperatureF,Dew PointF,Humidity,Sea Level PressureIn,VisibilityMPH,Wind Direction,Wind SpeedMPH,Gust SpeedMPH,PrecipitationIn,Events,Conditions,WindDirDegrees,DateUTC
12:56 AM,48.0,44.1,86,29.80,-9999.0,SSW,6.9,-,N/A,,Unknown,200,2013-04-30 04:56:00
1:56 AM,48.9,45.0,86,29.79,-9999.0,SSW,5.8,-,N/A,,Unknown,210,2013-04-30 05:56:00
2:56 AM,48.9,46.0,90,29.78,-9999.0,SSW,5.8,-,N/A,,Unknown,200,2013-04-30 06:56:00
3:56 AM,50.0,46.9,89,29.77,-9999.0,Variable,5.8,-,N/A,,Unknown,0,2013-04-30 07:56:00
4:56 AM,50.0,46.9,89,29.75,-9999.0,Variable,6.9,-,N/A,,Unknown,0,2013-04-30 08:56:00
5:56 AM,51.1,46.9,86,29.73,-9999.0,South,6.9,-,N/A,,Unknown,190,2013-04-30 09:56:00
6:56 AM,51.1,46.0,83,29.73,-9999.0,South,6.9,-,N/A,,Unknown,180,2013-04-30 10:56:00
7:56 AM,53.1,48.0,83,29.73,-9999.0,South,12.7,21.9,N/A,,Unknown,170,2013-04-30 11:56:00
8:56 AM,54.0,48.9,83,29.72,-9999.0,South,16.1,25.3,N/A,,Unknown,170,2013-04-30 12:56:00
9:56 AM,57.0,51.1,81,29.71,-9999.0,South,15.0,21.9,N/A,,Unknown,180,2013-04-30 13:56:00
10:56 AM,57.0,52.0,83,29.70,-9999.0,South,12.7,21.9,0.02,,Unknown,190,2013-04-30 14:56:00
11:56 AM,64.0,53.1,67,29.68,-9999.0,South,19.6,31.1,N/A,,Unknown,180,2013-04-30 15:56:00
12:56 PM,64.0,52.0,65,29.70,-9999.0,South,20.7,31.1,N/A,,Unknown,170,2013-04-30 16:56:00
1:56 PM,66.0,53.1,63,29.67,-9999.0,South,23.0,29.9,N/A,,Unknown,180,2013-04-30 17:56:00
2:56 PM,64.9,53.1,65,29.67,-9999.0,South,19.6,36.8,N/A,,Unknown,180,2013-04-30 18:56:00
3:56 PM,68.0,54.0,61,29.66,-9999.0,South,21.9,36.8,N/A,,Unknown,180,2013-04-30 19:56:00
4:56 PM,66.9,52.0,59,29.68,-9999.0,SSW,19.6,41.4,N/A,,Unknown,200,2013-04-30 20:56:00
5:56 PM,66.0,52.0,60,29.71,-9999.0,South,13.8,24.2,N/A,,Unknown,180,2013-04-30 21:56:00
6:56 PM,66.0,52.0,60,29.73,-9999.0,South,12.7,21.9,N/A,,Unknown,180,2013-04-30 22:56:00
7:56 PM,64.9,51.1,61,29.73,-9999.0,South,12.7,25.3,N/A,,Unknown,190,2013-04-30 23:56:00
8:56 PM,63.0,50.0,63,29.76,-9999.0,SSW,11.5,-,N/A,,Unknown,200,2013-05-01 00:56:00
9:56 PM,61.0,48.9,64,29.81,-9999.0,Variable,6.9,-,N/A,,Unknown,0,2013-05-01 01:56:00
10:56 PM,54.0,46.9,77,29.84,-9999.0,East,3.5,-,N/A,,Unknown,90,2013-05-01 02:56:00
11:56 PM,54.0,48.0,80,29.83,-9999.0,Calm,Calm,-,N/A,,Unknown,0,2013-05-01 03:56:00